Hourly Weather Roundup
Issued by NWS Central Illinois

Home | Current Version | Previous Version | Text Only | Print | Product List | Glossary On
Versions: 1 2 3 4 5 6 7 8 9 10 11 12 13 14 15 16 17 18 19 20 21 22 23 24 25 26 27 28 29 30 31 32 33 34 35 36 37 38 39 40 41 42 43 44 45 46 47 48 49 50
000
NZUS43 KILX 031310
HWRILX

AREA WEATHER ROUNDUP
NATIONAL WEATHER SERVICE, LINCOLN IL
800 AM CDT FRI JUL 03 2015


CITY           SKY/WX    TMP DP  RH WIND       PRES   REMARKS
BLOOMINGTON    CLOUDY    62  59  90 NE7       29.96S
CHAMPAIGN      PTSUNNY   66  59  78 NE7       29.92F
DANVILLE       PTSUNNY   64  59  81 E8        29.91S
DECATUR        PTSUNNY   66  61  84 NE8       29.92S
EFFINGHAM      MOSUNNY   69  63  81 N3        29.91S HAZE
FLORA          PTSUNNY   70  66  88 N3        29.89S FOG
GALESBURG      PTSUNNY   63  56  79 NE6       29.97S
JACKSONVILLE   MOSUNNY   64  61  88 N6        29.95R
LACON          CLOUDY    62  55  79 CALM      29.96S
LAWRENCEVILLE  CLOUDY    71  67  87 NE8       29.87S FOG
LITCHFIELD     SUNNY     64  60  87 N5        29.92S FOG
$$


CITY           SKY/WX    TMP DP  RH WIND       PRES   REMARKS
LINCOLN        CLOUDY    65  59  83 NE5       29.95R
MACOMB         PTSUNNY   63  59  87 NE7       29.99R
MATTOON        PTSUNNY   67  63  87 NE7       29.90R
MT CARMEL AP   PTSUNNY   72  68  88 N3        29.87R HAZE
OLNEY-NOBLE AP PTSUNNY   70  66  88 N6        29.88S
PARIS          CLOUDY    66  63  87 NE7       29.92R
PEORIA         PTSUNNY   64  56  75 NE7       29.96R
PONTIAC        CLOUDY    63  59  87 NE8       29.97S
RANTOUL        CLOUDY    67  60  79 NE9       29.94S
ROBINSON       PTSUNNY   70  66  85 NE5       29.89S
SPRINGFIELD    PTSUNNY   65  60  84 N6        29.94R
TAYLORVILLE    CLOUDY    63  61  94 N6        29.93R FOG
$$

...REGIONAL REPORTS...


CITY           SKY/WX    TMP DP  RH WIND       PRES   REMARKS
CHICAGO O`HARE CLOUDY    61  55  81 CALM      29.98S
KANKAKEE       CLOUDY    63  57  81 E6        29.97S
MOLINE         PTSUNNY   63  55  75 NE7       29.98R
MOUNT STERLING NOT AVBL
MOUNT VERNON   MOSUNNY   70  63  78 N5        29.89S
PITTSFIELD     MOSUNNY   66  62  86 NE5       29.96R
QUINCY         MOSUNNY   64  60  87 NE8       29.95R
ROCKFORD       CLOUDY    62  51  67 NE3       30.00S
$$


CITY           SKY/WX    TMP DP  RH WIND       PRES   REMARKS
BURLINGTON     CLOUDY    64  60  87 NE5       29.97R
CEDAR RAPIDS   MOSUNNY   61  56  83 E3        29.99S
DES MOINES     SUNNY     64  55  72 NE3       29.99S
KIRKSVILLE     SUNNY     65  60  84 NE6       29.98S
OTTUMWA        PTSUNNY   63  58  83 NE7       29.98R
ST LOUIS       PTSUNNY   70  62  76 N3        29.92R
$$


CITY           SKY/WX    TMP DP  RH WIND       PRES   REMARKS
TERRE HAUTE    CLOUDY    69  63  81 NE8       29.90R
EVANSVILLE     CLOUDY    71  69  93 N5        29.87R FOG
INDIANAPOLIS   LGT RAIN  64  59  83 NE12      29.90S
LAFAYETTE      CLOUDY    64  56  75 NE7       29.94S
MADISON        PTSUNNY   58  52  80 N3        30.01R
MILWAUKEE      PTSUNNY   60  52  74 CALM      30.00S
$$




USA.gov is the U.S. government's official web portal to all federal, state and local government web resources and services.